アトラス彗星

C/2019 L3 ( ATLAS )

English version
Home page
Updated on October 22, 2022

---------------------------------------------------------------------

・ プロフィール

発見日 2019年6月10日
発見光度 18.1等
発見者 Asteroid Terrestrial-Impact Last Alert System (ATLAS) search program

・ 写真集

・ 軌道要素

Epoch 2022 Aug. 9.0 TT = JDT 2459800.5
T 2022 Jan.  9.61835 TT                                 Rudenko
q   3.5544265            (2000.0)            P               Q
z  -0.0005071      Peri.  171.61007     -0.26046877     -0.66637177
 +/-0.0000002      Node   290.78799     +0.83677312     +0.20516944
e   1.0018026      Incl.   48.35648     +0.48162928     -0.71683622
From 5197 observations 2019 June 10-2022 Sept. 4, mean residual 0".4.

・ 星図

・ 光度変化

        m1 = -2.2 + 5 logΔ + 17.0 log r(t - 70)

---------------------------------------------------------------------

軌道要素はM.P.E.C. 2022-R139に掲載されたものです。
星図はステラナビゲータ Ver.10 (アストロアーツ) で作成したものです。
光度グラフはComet for Windowsで作成したものです。

---------------------------------------------------------------------

Copyright(C) Seiichi Yoshida (comet@aerith.net). All rights reserved.